Location: Malanoce
(44.2500°N, 7.4667°E)
Time: 05:27:54
(UTC+00:00)

YAOGAN 1 - Pass Details

Date: 17 November 2025
Orbit: 605 x 607 km, 97.8° (Epoch: 09 December)

Event Time Altitude Azimuth Distance (km) Brightness Sun altitude
Rises 18:03:23 0° 170° (S) 2,851 5.9 -21.7°
Reaches altitude 10° 18:05:33 10° 172° (S) 1,952 5.1 -22.1°
Maximum altitude 18:09:48 74° 258° (WSW) 637 2.6 -22.9°
Drops below altitude 10° 18:14:04 10° 344° (NNW) 1,967 5.3 -23.6°
Sets 18:16:16 0° 346° (NNW) 2,875 6.1 -24.0°
